CST,Max TemperatureF,Mean TemperatureF,Min TemperatureF,Max Dew PointF,MeanDew PointF,Min DewpointF,Max Humidity, Mean Humidity, Min Humidity, Max Sea Level PressureIn, Mean Sea Level PressureIn, Min Sea Level PressureIn, Max VisibilityMiles, Mean VisibilityMiles, Min VisibilityMiles, Max Wind SpeedMPH, Mean Wind SpeedMPH, Max Gust SpeedMPH,PrecipitationIn, CloudCover, Events, WindDirDegrees
2012-11-1,66,48,30,41,34,25,87,67,37,30.03,29.95,29.86,10.0,9.7,3.0,5,0,,0.00,2,,257
2012-11-2,57,46,35,39,33,28,93,59,33,30.08,30.01,29.91,10.0,9.9,6.0,10,3,17,0.00,1,,108
2012-11-3,50,44,37,37,35,32,93,66,57,30.21,30.06,29.97,10.0,10.0,10.0,9,5,,0.00,6,,79
2012-11-4,51,38,26,41,32,27,100,80,47,30.27,30.20,30.14,10.0,6.3,0.2,7,0,,0.00,4,Fog-Rain,185
2012-11-5,44,42,41,41,39,34,100,89,66,30.15,30.08,30.04,10.0,7.8,2.0,12,5,17,0.00,8,Rain,123
2012-11-6,46,44,41,43,41,39,100,90,81,30.08,30.00,29.93,10.0,7.1,2.0,9,1,,0.00,8,Rain,257
2012-11-7,48,40,32,41,36,32,100,75,62,30.18,30.09,29.95,10.0,10.0,9.0,18,5,21,0.00,8,,339
2012-11-8,59,42,26,41,35,27,100,74,45,30.22,30.14,30.05,10.0,7.5,0.2,12,3,16,0.00,2,Fog,143
2012-11-9,73,56,39,55,47,37,93,65,46,30.06,29.98,29.89,10.0,10.0,10.0,15,7,23,0.00,2,,159
2012-11-10,80,68,57,52,47,39,67,50,23,29.99,29.94,29.88,10.0,10.0,10.0,21,11,36,0.00,0,,169
2012-11-11,68,52,35,57,50,32,100,80,60,30.13,29.92,29.77,10.0,7.6,1.0,26,13,38,0.65,6,Rain,203
2012-11-12,44,36,28,32,23,19,93,62,37,30.44,30.33,30.14,10.0,10.0,10.0,18,9,34,0.00,1,,294
2012-11-13,50,36,23,28,24,16,100,66,26,30.54,30.47,30.42,10.0,10.0,9.0,9,1,,0.00,0,,130
2012-11-14,50,39,28,32,26,19,100,64,34,30.49,30.42,30.35,10.0,9.3,2.0,8,1,,0.00,0,,136
2012-11-15,55,40,26,34,29,25,100,73,33,30.39,30.35,30.32,10.0,9.6,5.0,5,0,,0.00,1,,155
2012-11-16,59,44,28,34,31,27,100,73,34,30.45,30.42,30.38,10.0,6.2,0.8,4,0,,0.00,1,,0
2012-11-17,59,42,26,36,29,23,100,69,25,30.51,30.43,30.37,10.0,7.3,0.2,9,2,,0.00,0,Fog,130
2012-11-18,64,45,26,36,31,27,100,64,27,30.39,30.33,30.25,10.0,9.0,3.0,9,2,,0.00,0,,134
2012-11-19,57,48,39,45,39,32,100,70,54,30.27,30.20,30.12,10.0,9.9,7.0,10,3,,0.00,5,,147
2012-11-20,62,48,33,48,42,34,100,87,52,30.21,30.13,30.08,10.0,8.1,0.2,12,2,17,0.00,1,Fog,315
2012-11-21,62,50,35,55,42,36,100,91,55,30.29,30.20,30.12,10.0,3.9,0.2,7,0,,0.00,4,Fog,137
2012-11-22,68,52,35,54,45,36,100,73,42,30.12,30.03,29.91,10.0,8.5,0.8,18,5,28,0.04,3,Rain-Thunderstorm,188
2012-11-23,50,39,28,39,25,18,81,59,39,30.38,30.28,30.13,10.0,10.0,10.0,22,11,29,0.00,1,,316
2012-11-24,37,30,23,19,18,16,80,61,45,30.36,30.24,30.01,10.0,10.0,10.0,9,3,,0.00,0,,232
2012-11-25,55,42,28,30,25,19,80,49,33,30.05,29.96,29.90,10.0,10.0,10.0,10,2,16,0.00,1,,331
2012-11-26,42,34,26,28,26,21,81,66,53,30.41,30.21,30.05,10.0,10.0,10.0,15,3,20,0.00,6,,4
2012-11-27,39,29,19,23,18,16,86,68,42,30.48,30.39,30.31,10.0,9.4,1.2,5,0,,0.00,0,,60
2012-11-28,50,34,19,28,23,18,100,76,40,30.45,30.36,30.29,10.0,9.8,8.0,7,0,,0.00,1,,150
2012-11-29,62,43,24,34,29,25,100,60,31,30.28,30.17,30.07,10.0,10.0,10.0,15,4,16,0.00,0,,154
2012-11-30,66,49,32,46,38,30,93,65,46,30.12,30.09,30.04,10.0,10.0,9.0,8,1,,0.00,1,,217